Weather History for KHYR - November, 2010

Change the Weather History Date:

Tuesday, November 9, 2010

  Actual Average Record
Temperature  
Mean Temperature 54 °F -  
Max Temperature 66 °F 38 °F 68 °F (1999)
Min Temperature 41 °F 28 °F 8 °F (2003)
Degree Days  
Heating Degree Days 12    
Growing Degree Days 4 (Base 50)    
Moisture  
Dew Point 40 °F    
Average Humidity 59    
Maximum Humidity 86    
Minimum Humidity 38    
Precipitation  
Precipitation 0.00 in - - ()
Sea Level Pressure  
Sea Level Pressure 29.88 in    
Wind  
Wind Speed 6 mph (SE)    
Max Wind Speed 13 mph    
Max Gust Speed 21 mph    
Visibility 9 miles    
Events      
Averages and records for this station are not official NWS values.
T = Trace of Precipitation, MM = Missing Value Source: NWS Daily Summary

Daily Weather History Graph

Daily Weather History Graph

Search for Another Location

Airport or City:

Trip Planner

Search our weather history database for the weather conditions in past years. The results will help you decide how hot, cold, wet, or windy it might be!

Date:

Astronomy

Nov. 09, 2010 Rise Set
Actual Time 6:57 AM CST 4:40 PM CST
Civil Twilight 6:25 AM CST 5:12 PM CST
Nautical Twilight 5:50 AM CST 5:48 PM CST
Astronomical Twilight 5:15 AM CST 6:23 PM CST
Moon 10:46 AM CST (11/9) 7:31 PM CST (11/9)
Length of Visible Light 10h 46m
Length of Day
9h 43m
Waxing Crescent, 15% of the Moon is Illuminated
Nov 9
Waxing Crescent
Nov 13
First Quarter
Nov 21
Full
Nov 28
Last Quarter
Dec 5
New

Hourly Weather History & Observations

Time (CST) Temp. Windchill Dew Point Humidity Pressure Visibility Wind Dir Wind Speed Gust Speed Precip Events Conditions
12:53 AM 46.0 °F - 37.9 °F 73% 29.83 in 10.0 mi Calm Calm - N/A   Clear
1:53 AM 45.0 °F 42.6 °F 37.9 °F 76% 29.84 in 9.0 mi East 4.6 mph - N/A   Clear
3:53 AM 41.0 °F - 37.0 °F 86% 29.84 in 8.0 mi Calm Calm - N/A   Clear
4:53 AM 44.1 °F 42.5 °F 37.0 °F 76% 29.86 in 8.0 mi Variable 3.5 mph - N/A   Clear
6:53 AM 43.0 °F 41.3 °F 37.0 °F 80% 29.88 in 7.0 mi ESE 3.5 mph - N/A   Clear
7:53 AM 45.0 °F 41.2 °F 37.0 °F 74% 29.89 in 6.0 mi SE 6.9 mph - N/A   Haze
9:53 AM 55.9 °F - 39.0 °F 53% 29.91 in 10.0 mi SSE 8.1 mph - N/A   Clear
10:53 AM 60.1 °F - 39.0 °F 46% 29.90 in 10.0 mi SE 8.1 mph 18.4 mph N/A   Clear
11:53 AM 63.0 °F - 39.9 °F 43% 29.88 in 10.0 mi SSE 11.5 mph - N/A   Clear
12:53 PM 64.0 °F - 39.9 °F 41% 29.87 in 10.0 mi SSE 8.1 mph 17.3 mph N/A   Clear
1:53 PM 66.0 °F - 39.9 °F 38% 29.86 in 10.0 mi SSE 11.5 mph - N/A   Clear
2:53 PM 66.9 °F - 41.0 °F 39% 29.85 in 10.0 mi SSE 11.5 mph - N/A   Clear
3:53 PM 64.9 °F - 41.0 °F 42% 29.86 in 10.0 mi SE 11.5 mph - N/A   Clear
4:53 PM 55.9 °F - 39.9 °F 55% 29.87 in 10.0 mi SE 5.8 mph - N/A   Clear
5:53 PM 59.0 °F - 41.0 °F 51% 29.88 in 10.0 mi SSE 5.8 mph - N/A   Clear
6:53 PM 59.0 °F - 41.0 °F 51% 29.88 in 10.0 mi SE 8.1 mph - N/A   Clear
7:53 PM 57.0 °F - 42.1 °F 57% 29.88 in 10.0 mi SSE 11.5 mph 19.6 mph N/A   Clear
9:53 PM 54.0 °F - 43.0 °F 66% 29.90 in 9.0 mi SE 9.2 mph 20.7 mph N/A   Clear
10:53 PM 53.1 °F - 42.1 °F 66% 29.92 in 8.0 mi SSE 12.7 mph 20.7 mph N/A   Clear
11:53 PM 52.0 °F - 42.1 °F 69% 29.93 in 7.0 mi SSE 10.4 mph - N/A   Clear